Westfield, MA

7:54 AM EST on February 27, 2017 (GMT -0500)
Barnes Municipal

Weather History for KBAF - March, 2014

Change the Weather History Date:

Wednesday, March 12, 2014

  Actual Average Record
Temperature  
Mean Temperature 38 °F -  
Max Temperature 43 °F 40 °F 73 °F (2012)
Min Temperature 33 °F 22 °F 23 °F (1997)
Degree Days  
Heating Degree Days 27    
Moisture  
Dew Point 33 °F    
Average Humidity 83    
Maximum Humidity 96    
Minimum Humidity 60    
Precipitation  
Precipitation 0.34 in - - ()
Sea Level Pressure  
Sea Level Pressure 29.32 in    
Wind  
Wind Speed 6 mph (North)    
Max Wind Speed 16 mph    
Max Gust Speed 22 mph    
Visibility 7 miles    
Events Rain , Snow    
Averages and records for this station are not official NWS values.
T = Trace of Precipitation, MM = Missing Value Source: NWS Daily Summary

Daily Weather History Graph

Daily Weather History Graph

Search for Another Location

Airport or City:

Trip Planner

Search our weather history database for the weather conditions in past years. The results will help you decide how hot, cold, wet, or windy it might be!

Date:

Astronomy

Mar. 12, 2014 Rise Set
Actual Time 7:07 AM EDT 6:53 PM EDT
Civil Twilight 6:40 AM EDT 7:21 PM EDT
Nautical Twilight 6:07 AM EDT 7:54 PM EDT
Astronomical Twilight 5:34 AM EDT 8:27 PM EDT
Moon 3:18 PM EDT (3/12) 4:41 AM EDT (3/12)
Length of Visible Light 12h 41m
Length of Day
11h 45m
Waxing Gibbous, 85% of the Moon is Illuminated
Mar 12
Waxing Gibbous
Mar 16
Full
Mar 23
Last Quarter
Mar 30
New
Apr 7
First Quarter

Hourly Weather History & Observations

Time (EDT) Temp. Windchill Dew Point Humidity Pressure Visibility Wind Dir Wind Speed Gust Speed Precip Events Conditions
12:53 AM 37.9 °F - 28.9 °F 70% 29.72 in 10.0 mi Calm Calm - N/A   Overcast
1:53 AM 36.0 °F - 30.0 °F 79% 29.72 in 10.0 mi Calm Calm - N/A   Overcast
2:53 AM 37.9 °F - 28.9 °F 70% 29.70 in 10.0 mi Calm Calm - N/A   Overcast
3:53 AM 37.0 °F 34.5 °F 28.9 °F 73% 29.66 in 10.0 mi NNE 3.5 mph - N/A   Overcast
4:53 AM 37.0 °F - 28.9 °F 73% 29.65 in 10.0 mi Calm Calm - N/A   Overcast
5:53 AM 37.0 °F 34.5 °F 28.9 °F 73% 29.66 in 10.0 mi NNE 3.5 mph - N/A   Overcast
6:53 AM 37.0 °F 34.5 °F 28.9 °F 73% 29.66 in 10.0 mi NNW 3.5 mph - N/A   Overcast
7:53 AM 37.0 °F 32.4 °F 28.9 °F 73% 29.64 in 10.0 mi North 5.8 mph - N/A   Overcast
8:53 AM 37.0 °F 31.0 °F 30.0 °F 76% 29.63 in 10.0 mi North 8.1 mph - N/A   Overcast
9:53 AM 39.0 °F 34.8 °F 30.0 °F 70% 29.60 in 10.0 mi NNE 5.8 mph - N/A   Overcast
10:53 AM 39.0 °F 33.4 °F 30.9 °F 73% 29.57 in 10.0 mi North 8.1 mph - 0.00 in   Overcast
11:53 AM 43.0 °F 37.2 °F 30.0 °F 60% 29.47 in 10.0 mi North 10.4 mph - N/A   Overcast
12:53 PM 41.0 °F 33.9 °F 32.0 °F 70% 29.44 in 10.0 mi North 12.7 mph - N/A   Overcast
1:53 PM 41.0 °F 33.5 °F 34.0 °F 76% 29.38 in 10.0 mi North 13.8 mph - 0.00 in   Overcast
2:44 PM 39.9 °F 32.5 °F 34.0 °F 79% 29.31 in 10.0 mi NNE 12.7 mph - N/A   Overcast
2:53 PM 39.9 °F 32.5 °F 34.0 °F 79% 29.31 in 10.0 mi North 12.7 mph - N/A   Overcast
3:53 PM 39.0 °F 30.6 °F 35.1 °F 86% 29.25 in 10.0 mi NNE 15.0 mph - 0.00 in Rain Light Rain
4:51 PM 37.4 °F 29.8 °F 35.6 °F 93% 29.19 in 2.5 mi NNE 11.5 mph - 0.07 in Rain Light Rain
4:53 PM 37.9 °F 29.6 °F 36.0 °F 93% 29.20 in 2.5 mi North 13.8 mph - 0.07 in Rain Light Rain
5:15 PM 37.9 °F 30.5 °F 36.0 °F 93% 29.17 in 2.5 mi NNE 11.5 mph - 0.01 in Rain Light Rain
5:53 PM 37.9 °F 32.1 °F 36.0 °F 93% 29.15 in 2.5 mi NNE 8.1 mph - 0.06 in Rain Light Rain
6:53 PM 37.0 °F 29.3 °F 35.1 °F 93% 29.11 in 2.5 mi North 11.5 mph - 0.09 in Rain Light Rain
7:00 PM 37.0 °F 31.6 °F 35.1 °F 93% 29.09 in 3.0 mi North 6.9 mph - 0.00 in Rain Light Rain
7:22 PM 37.0 °F 30.4 °F 35.1 °F 93% 29.08 in 3.0 mi North 9.2 mph - 0.02 in Rain Light Rain
7:45 PM 37.0 °F 31.6 °F 35.1 °F 93% 29.06 in 3.0 mi NNE 6.9 mph - 0.03 in Rain Light Rain
7:53 PM 37.0 °F 34.5 °F 36.0 °F 96% 29.07 in 3.0 mi NNE 3.5 mph - 0.03 in   Overcast
8:48 PM 37.4 °F 29.8 °F 35.6 °F 93% 29.07 in 2.0 mi North 11.5 mph - 0.02 in Snow Light Snow
8:53 PM 37.0 °F 29.3 °F 35.1 °F 93% 29.08 in 2.0 mi North 11.5 mph - 0.02 in Snow Light Snow
8:56 PM 37.0 °F 29.8 °F 35.1 °F 93% 29.06 in 4.0 mi North 10.4 mph - 0.01 in Snow Light Snow
9:06 PM 37.0 °F 29.3 °F 35.1 °F 93% 29.06 in 5.0 mi North 11.5 mph - 0.02 in Rain Light Rain
9:53 PM 37.0 °F 30.4 °F 35.1 °F 93% 29.07 in 10.0 mi North 9.2 mph - 0.05 in Rain Light Rain
10:53 PM 36.0 °F 27.5 °F 34.0 °F 93% 29.08 in 10.0 mi North 12.7 mph 21.9 mph 0.00 in Rain Light Rain
11:06 PM 36.0 °F 26.3 °F 33.1 °F 89% 29.07 in 10.0 mi North 16.1 mph - 0.00 in   Overcast
11:51 PM 33.8 °F 24.3 °F 30.2 °F 87% 29.05 in 10.0 mi NNE 13.8 mph - 0.02 in Rain Light Rain
11:53 PM 34.0 °F 25.5 °F 30.9 °F 89% 29.07 in 10.0 mi NNE 11.5 mph - 0.02 in Rain Light Rain